TimeCDT,TemperatureF,Dew PointF,Humidity,Sea Level PressureIn,VisibilityMPH,Wind Direction,Wind SpeedMPH,Gust SpeedMPH,PrecipitationIn,Events,Conditions,WindDirDegrees,DateUTC
12:53 AM,34.0,28.0,79,30.14,10.0,Calm,Calm,-,N/A,,Clear,0,2013-04-20 05:53:00
1:53 AM,30.9,28.9,92,30.14,10.0,Calm,Calm,-,N/A,,Clear,0,2013-04-20 06:53:00
2:53 AM,30.9,28.9,92,30.14,10.0,Calm,Calm,-,N/A,,Clear,0,2013-04-20 07:53:00
3:53 AM,30.0,28.0,92,30.15,10.0,Calm,Calm,-,N/A,,Clear,0,2013-04-20 08:53:00
4:53 AM,30.0,27.0,88,30.16,9.0,Calm,Calm,-,N/A,,Clear,0,2013-04-20 09:53:00
5:53 AM,30.0,28.0,92,30.17,10.0,Calm,Calm,-,N/A,,Clear,0,2013-04-20 10:53:00
6:53 AM,30.9,30.0,96,30.19,10.0,Calm,Calm,-,N/A,,Clear,0,2013-04-20 11:53:00
7:53 AM,39.9,30.9,70,30.21,10.0,West,4.6,-,N/A,,Clear,280,2013-04-20 12:53:00
8:53 AM,45.0,30.9,58,30.22,10.0,WNW,5.8,-,N/A,,Clear,290,2013-04-20 13:53:00
9:53 AM,46.9,24.1,41,30.24,10.0,WNW,12.7,18.4,N/A,,Clear,290,2013-04-20 14:53:00
10:53 AM,50.0,25.0,38,30.25,10.0,NNW,11.5,19.6,N/A,,Clear,340,2013-04-20 15:53:00
11:53 AM,51.1,25.0,36,30.25,10.0,West,10.4,20.7,N/A,,Clear,280,2013-04-20 16:53:00
12:53 PM,53.1,25.0,34,30.24,10.0,WNW,13.8,19.6,N/A,,Clear,290,2013-04-20 17:53:00
1:53 PM,54.0,25.0,33,30.23,10.0,NW,10.4,18.4,N/A,,Clear,310,2013-04-20 18:53:00
2:53 PM,55.9,25.0,30,30.23,10.0,North,10.4,18.4,N/A,,Clear,350,2013-04-20 19:53:00
3:53 PM,55.0,25.0,31,30.22,10.0,Variable,6.9,-,N/A,,Clear,0,2013-04-20 20:53:00
4:53 PM,55.9,26.1,32,30.23,10.0,Variable,6.9,-,N/A,,Clear,0,2013-04-20 21:53:00
5:53 PM,55.0,26.1,33,30.24,10.0,North,8.1,-,N/A,,Clear,350,2013-04-20 22:53:00
6:53 PM,52.0,25.0,35,30.24,10.0,North,5.8,-,N/A,,Clear,360,2013-04-20 23:53:00
7:53 PM,48.9,26.1,41,30.26,10.0,North,4.6,-,N/A,,Clear,10,2013-04-21 00:53:00
8:53 PM,48.0,26.1,42,30.29,10.0,NNW,3.5,-,N/A,,Clear,340,2013-04-21 01:53:00
9:53 PM,46.0,26.1,46,30.30,10.0,North,3.5,-,N/A,,Clear,360,2013-04-21 02:53:00
10:53 PM,45.0,26.1,48,30.31,10.0,Calm,Calm,-,N/A,,Clear,0,2013-04-21 03:53:00
11:53 PM,42.1,30.9,65,30.30,10.0,NNE,3.5,-,N/A,,Clear,30,2013-04-21 04:53:00